Time,TemperatureF,DewpointF,PressureIn,WindDirection,WindDirectionDegrees,WindSpeedMPH,WindSpeedGustMPH,Humidity,HourlyPrecipIn,Conditions,Clouds,dailyrainin,SoftwareType,DateUTC
2013-01-28 07:51:00,19.5,9.3,30.43,WNW,296,0.0,11.0,64,0.00,,,0.00,Wunderground v.1.15,2013-01-28 12:51:00,
2013-01-28 07:52:00,19.6,9.4,30.42,WNW,296,0.0,11.0,64,0.00,,,0.00,Wunderground v.1.15,2013-01-28 12:52:00,
2013-01-28 07:53:00,19.7,9.5,30.42,WNW,296,0.0,11.0,64,0.00,,,0.00,Wunderground v.1.15,2013-01-28 12:53:00,
2013-01-28 07:56:00,19.9,10.7,30.42,WNW,296,0.0,11.0,67,0.00,,,0.00,Wunderground v.1.15,2013-01-28 12:56:00,
2013-01-28 08:02:00,20.4,11.8,30.42,WNW,296,0.0,11.0,69,0.00,,,0.00,Wunderground v.1.15,2013-01-28 13:02:00,
2013-01-28 08:07:00,20.8,12.2,30.42,WNW,296,0.0,11.0,69,0.00,,,0.00,Wunderground v.1.15,2013-01-28 13:07:00,
2013-01-28 08:12:00,21.2,11.6,30.42,WNW,296,0.0,0.0,66,0.00,,,0.00,Wunderground v.1.15,2013-01-28 13:12:00,
2013-01-28 08:18:00,21.6,12.3,30.42,WNW,296,0.0,0.0,67,0.00,,,0.00,Wunderground v.1.15,2013-01-28 13:18:00,
2013-01-28 08:23:00,21.9,13.0,30.42,WNW,296,0.0,0.0,68,0.00,,,0.00,Wunderground v.1.15,2013-01-28 13:23:00,
2013-01-28 08:29:00,22.4,13.8,30.42,WNW,296,0.0,0.0,69,0.00,,,0.00,Wunderground v.1.15,2013-01-28 13:29:00,
2013-01-28 08:34:00,22.9,13.9,30.42,WNW,296,0.0,0.0,68,0.00,,,0.00,Wunderground v.1.15,2013-01-28 13:34:00,
2013-01-28 21:50:00,32.5,31.5,30.02,East,100,2.0,2.0,96,0.00,,,0.00,Wunderground v.1.15,2013-01-29 02:50:00,
2013-01-28 21:56:00,32.5,31.7,30.01,ESE,105,2.0,2.0,97,0.00,,,0.00,Wunderground v.1.15,2013-01-29 02:56:00,
2013-01-28 22:02:00,32.5,31.7,30.00,ESE,109,1.0,3.0,97,0.00,,,0.00,Wunderground v.1.15,2013-01-29 03:02:00,
2013-01-28 22:07:00,32.5,31.7,30.01,East,84,1.0,3.0,97,0.00,,,0.00,Wunderground v.1.15,2013-01-29 03:07:00,
2013-01-28 22:12:00,32.6,31.8,30.01,East,84,2.0,3.0,97,0.00,,,0.00,Wunderground v.1.15,2013-01-29 03:12:00,
2013-01-28 22:18:00,32.6,31.8,30.00,East,83,1.0,3.0,97,0.00,,,0.00,Wunderground v.1.15,2013-01-29 03:18:00,
2013-01-28 22:23:00,32.6,31.8,30.00,ENE,74,1.0,2.0,97,0.00,,,0.00,Wunderground v.1.15,2013-01-29 03:23:00,
2013-01-28 22:29:00,32.6,31.8,30.00,ENE,68,1.0,3.0,97,0.00,,,0.00,Wunderground v.1.15,2013-01-29 03:29:00,
2013-01-28 22:34:00,32.6,31.8,30.00,ESE,106,1.0,1.0,97,0.00,,,0.00,Wunderground v.1.15,2013-01-29 03:34:00,
2013-01-28 22:40:00,32.6,31.8,29.99,ESE,113,0.0,0.0,97,0.00,,,0.00,Wunderground v.1.15,2013-01-29 03:40:00,
2013-01-28 22:45:00,32.6,31.8,30.00,ENE,76,1.0,4.0,97,0.00,,,0.00,Wunderground v.1.15,2013-01-29 03:45:00,
2013-01-28 22:51:00,32.7,31.9,30.00,ENE,69,1.0,1.0,97,0.00,,,0.00,Wunderground v.1.15,2013-01-29 03:51:00,
2013-01-28 22:56:00,32.7,31.9,30.00,SE,124,1.0,3.0,97,0.00,,,0.00,Wunderground v.1.15,2013-01-29 03:56:00,
2013-01-28 23:02:00,32.7,31.9,30.00,ESE,105,1.0,1.0,97,0.00,,,0.00,Wunderground v.1.15,2013-01-29 04:02:00,